Location: Bathurst
(33.4193°S, 149.5775°E)
Time: 09:23:43
(UTC+10:00)

Vanguard 1 Rocket - Pass Details

Date: 16 June 2021
Orbit: 650 x 4226 km, 34.3° (Epoch: 02 August)

Event Time Altitude Azimuth Distance (km) Brightness Sun altitude
Rises 06:11:08 0° 339° (NNW) 8,454 12.3 -10.9°
Reaches altitude 10° 06:19:04 10° 350° (N) 7,330 12.1 -9.3°
Maximum altitude 06:36:38 26° 36° (NE) 5,179 12.1 -6.0°
Drops below altitude 10° 06:49:06 10° 84° (E) 5,233 12.7 -3.6°
Sets 06:53:18 0° 96° (E) 5,746 12.6 -2.8°
